Terminal Aerodrome Forecast
Issued by NWS Twin Cities, MN

Home | Current Version | Previous Version | Text Only | Print | Product List | Glossary On
Versions: 1 2 3 4 5 6 7 8 9 10 11 12 13 14 15
000
FTUS43 KMPX 242300
TAFSTC
TAF
KSTC 242339Z 2500/2524 23007KT P6SM BKN250
     FM250200 26008KT P6SM SCT120 BKN250
     FM251500 31013G20KT P6SM SCT100=

USA.gov is the U.S. government's official web portal to all federal, state and local government web resources and services.